Beaufort, SC

3:31 PM EDT on October 22, 2017 (GMT -0400)
Beaufort

Weather History for KARW - July, 2014

Change the Weather History Date:

Friday, July 25, 2014

  Actual Average (KNBC) Record (KNBC)
Temperature  
Mean Temperature 81 °F -  
Max Temperature 91 °F 90 °F 100 °F (1932)
Min Temperature 71 °F 73 °F 68 °F (1977)
Cooling Degree Days 16    
Growing Degree Days 31 (Base 50)    
Moisture  
Dew Point 74 °F    
Average Humidity 82    
Maximum Humidity 100    
Minimum Humidity 59    
Precipitation  
Precipitation 0.00 in - - ()
Sea Level Pressure  
Sea Level Pressure 29.99 in    
Wind  
Wind Speed 8 mph (SW)    
Max Wind Speed 20 mph    
Max Gust Speed 29 mph    
Visibility 9 miles    
Events Rain , Thunderstorm    
Averages and records for this station are not official NWS values.
T = Trace of Precipitation, MM = Missing Value Source: NWS Daily Summary

Daily Weather History Graph

Daily Weather History Graph

Search for Another Location

Airport or City:

Trip Planner

Search our weather history database for the weather conditions in past years. The results will help you decide how hot, cold, wet, or windy it might be!

Date:

Astronomy

Jul. 25, 2014 Rise Set
Actual Time 6:32 AM EDT 8:25 PM EDT
Civil Twilight 6:05 AM EDT 8:52 PM EDT
Nautical Twilight 5:32 AM EDT 9:25 PM EDT
Astronomical Twilight 4:57 AM EDT 10:00 PM EDT
Moon 5:28 AM EDT (7/25) 7:24 PM EDT (7/25)
Length of Visible Light 14h 47m
Length of Day
13h 52m
Waning Crescent, 1% of the Moon is Illuminated
Jul 25
Waning Crescent
Jul 26
New
Aug 3
First Quarter
Aug 10
Full
Aug 17
Last Quarter

Hourly Weather History & Observations

Time (EDT) Temp. Heat Index Dew Point Humidity Pressure Visibility Wind Dir Wind Speed Gust Speed Precip Events Conditions
12:15 AM 82.4 °F 94.0 °F 80.6 °F 94% 29.96 in 10.0 mi SW 6.9 mph - N/A   Mostly Cloudy
12:35 AM 84.2 °F 96.1 °F 78.8 °F 84% 29.96 in 10.0 mi SW 8.1 mph - N/A   Overcast
12:55 AM 82.4 °F 90.9 °F 77.0 °F 84% 29.96 in 10.0 mi WSW 8.1 mph - N/A   Scattered Clouds
1:15 AM 82.4 °F 88.2 °F 73.4 °F 74% 29.96 in 10.0 mi WSW 8.1 mph - N/A   Scattered Clouds
1:35 AM 82.4 °F 88.2 °F 73.4 °F 74% 29.96 in 10.0 mi WSW 9.2 mph - N/A   Scattered Clouds
1:55 AM 82.4 °F 88.2 °F 73.4 °F 74% 29.96 in 10.0 mi SW 9.2 mph - N/A   Clear
2:15 AM 82.4 °F 88.2 °F 73.4 °F 74% 29.96 in 10.0 mi WSW 6.9 mph - N/A   Scattered Clouds
2:35 AM 82.4 °F 88.2 °F 73.4 °F 74% 29.96 in 10.0 mi WSW 10.4 mph 16.1 mph N/A   Overcast
2:55 AM 82.4 °F 88.2 °F 73.4 °F 74% 29.96 in 10.0 mi SW 5.8 mph - N/A   Mostly Cloudy
3:15 AM 80.6 °F 85.4 °F 73.4 °F 79% 29.96 in 10.0 mi WSW 9.2 mph - N/A   Overcast
3:35 AM 80.6 °F 85.4 °F 73.4 °F 79% 29.96 in 10.0 mi WSW 9.2 mph - N/A   Overcast
3:55 AM 80.6 °F 85.4 °F 73.4 °F 79% 29.95 in 10.0 mi WSW 9.2 mph - N/A   Scattered Clouds
4:15 AM 80.6 °F 85.4 °F 73.4 °F 79% 29.96 in 10.0 mi WSW 6.9 mph - N/A   Clear
4:35 AM 78.8 °F - 73.4 °F 83% 29.96 in 10.0 mi WSW 6.9 mph - N/A   Clear
4:55 AM 78.8 °F - 73.4 °F 83% 29.96 in 10.0 mi SW 4.6 mph - N/A   Clear
5:15 AM 78.8 °F - 73.4 °F 83% 29.97 in 10.0 mi WSW 6.9 mph - N/A   Clear
5:35 AM 78.8 °F - 73.4 °F 83% 29.98 in 10.0 mi SW 5.8 mph - N/A   Clear
5:55 AM 78.8 °F - 73.4 °F 83% 29.98 in 10.0 mi WSW 8.1 mph - N/A   Clear
6:15 AM 78.8 °F - 73.4 °F 83% 29.98 in 10.0 mi SW 5.8 mph - N/A   Clear
6:35 AM 78.8 °F - 73.4 °F 83% 29.99 in 10.0 mi WSW 8.1 mph - N/A   Clear
6:55 AM 78.8 °F - 73.4 °F 83% 29.99 in 10.0 mi WSW 6.9 mph - N/A   Clear
7:15 AM 78.8 °F - 73.4 °F 83% 30.00 in 10.0 mi WSW 6.9 mph - N/A   Clear
7:35 AM 78.8 °F - 73.4 °F 83% 30.00 in 10.0 mi WSW 9.2 mph - N/A   Clear
7:55 AM 80.6 °F 85.4 °F 73.4 °F 79% 30.01 in 10.0 mi WSW 5.8 mph - N/A   Clear
8:15 AM 80.6 °F 86.2 °F 75.2 °F 84% 30.01 in 10.0 mi West 6.9 mph - N/A   Clear
8:35 AM 82.4 °F 89.5 °F 75.2 °F 79% 30.02 in 10.0 mi WSW 11.5 mph - N/A   Clear
8:55 AM 82.4 °F 89.5 °F 75.2 °F 79% 30.02 in 10.0 mi WSW 11.5 mph - N/A   Clear
9:15 AM 82.4 °F 89.5 °F 75.2 °F 79% 30.02 in 10.0 mi West 11.5 mph - N/A   Clear
9:35 AM 84.2 °F 92.3 °F 75.2 °F 74% 30.03 in 10.0 mi West 6.9 mph - N/A   Clear
9:55 AM 86.0 °F 96.9 °F 77.0 °F 74% 30.03 in 10.0 mi WSW 9.2 mph - N/A   Clear
10:15 AM 86.0 °F 95.1 °F 75.2 °F 70% 30.03 in 10.0 mi WNW 6.9 mph - N/A   Scattered Clouds
10:35 AM 86.0 °F 96.9 °F 77.0 °F 74% 30.03 in 10.0 mi West 5.8 mph - N/A   Scattered Clouds
10:55 AM 86.0 °F 96.9 °F 77.0 °F 74% 30.03 in 10.0 mi WSW 4.6 mph - N/A   Clear
11:15 AM 86.0 °F 96.9 °F 77.0 °F 74% 30.03 in 10.0 mi SW 6.9 mph - N/A   Clear
11:35 AM 87.8 °F 99.7 °F 77.0 °F 70% 30.03 in 10.0 mi SW 6.9 mph - N/A   Clear
11:55 AM 87.8 °F 97.6 °F 75.2 °F 66% 30.02 in 10.0 mi WSW 5.8 mph - N/A   Clear
12:15 PM 87.8 °F 99.7 °F 77.0 °F 70% 30.02 in 10.0 mi SW 5.8 mph - N/A   Clear
12:35 PM 89.6 °F 102.2 °F 77.0 °F 66% 30.01 in 10.0 mi SW 8.1 mph - N/A   Scattered Clouds
1:15 PM 89.6 °F 98.2 °F 73.4 °F 59% 30.01 in 7.0 mi Calm Calm - N/A   Scattered Clouds
1:35 PM 89.6 °F 98.2 °F 73.4 °F 59% 30.00 in 7.0 mi SW 9.2 mph - N/A Rain Light Rain
1:55 PM 89.6 °F 99.8 °F 75.2 °F 62% 29.99 in 7.0 mi SW 8.1 mph - N/A   Scattered Clouds
2:15 PM 91.4 °F 102.5 °F 75.2 °F 59% 29.98 in 7.0 mi South 6.9 mph - N/A   Mostly Cloudy
2:35 PM 89.6 °F 102.2 °F 77.0 °F 66% 29.97 in 7.0 mi South 9.2 mph - N/A   Mostly Cloudy
2:55 PM 87.8 °F 99.7 °F 77.0 °F 70% 29.96 in 7.0 mi South 11.5 mph 19.6 mph N/A Thunderstorm Mostly Cloudy
3:15 PM 87.8 °F 99.7 °F 77.0 °F 70% 29.95 in 5.0 mi South 10.4 mph 18.4 mph N/A Thunderstorm Haze
3:55 PM 89.6 °F 102.2 °F 77.0 °F 66% 29.94 in 10.0 mi South 8.1 mph 17.3 mph N/A Thunderstorm Thunderstorm
4:15 PM 87.8 °F 99.7 °F 77.0 °F 70% 29.95 in 10.0 mi South 6.9 mph 17.3 mph N/A Thunderstorm Mostly Cloudy
4:35 PM 82.4 °F 89.5 °F 75.2 °F 79% 29.97 in 10.0 mi NE 10.4 mph 19.6 mph N/A Thunderstorm Thunderstorm
4:55 PM 78.8 °F - 73.4 °F 83% 29.97 in 10.0 mi ENE 15.0 mph 26.5 mph N/A Thunderstorm Thunderstorm
5:15 PM 77.0 °F - 71.6 °F 83% 29.97 in 10.0 mi East 15.0 mph 21.9 mph N/A Thunderstorm Thunderstorm
5:35 PM 77.0 °F - 73.4 °F 89% 29.98 in 10.0 mi East 10.4 mph 19.6 mph N/A Rain , Thunderstorm Light Thunderstorms and Rain
5:55 PM 73.4 °F - 73.4 °F 100% 30.02 in 0.5 mi WNW 9.2 mph 28.8 mph N/A Rain , Thunderstorm Heavy Thunderstorms and Rain
6:35 PM 73.4 °F - 71.6 °F 94% 30.00 in 3.0 mi SSE 10.4 mph - N/A Rain , Thunderstorm Thunderstorms and Rain
6:55 PM 71.6 °F - 71.6 °F 100% 30.00 in 4.0 mi SSE 8.1 mph - N/A Rain , Thunderstorm Heavy Thunderstorms and Rain
7:15 PM 71.6 °F - 71.6 °F 100% 30.00 in 2.5 mi South 5.8 mph - N/A Rain , Thunderstorm Heavy Thunderstorms and Rain
7:35 PM 71.6 °F - 71.6 °F 100% 29.99 in 7.0 mi South 6.9 mph - N/A Rain , Thunderstorm Light Thunderstorms and Rain
7:55 PM 73.4 °F - 73.4 °F 100% 30.00 in 5.0 mi West 6.9 mph - N/A Rain , Thunderstorm Light Thunderstorms and Rain
8:15 PM 73.4 °F - 73.4 °F 100% 30.01 in 10.0 mi NNW 4.6 mph - N/A Rain , Thunderstorm Light Thunderstorms and Rain
8:35 PM 73.4 °F - 73.4 °F 100% 30.04 in 7.0 mi SSW 3.5 mph - N/A Rain , Thunderstorm Light Thunderstorms and Rain
8:55 PM 73.4 °F - 73.4 °F 100% 30.02 in 5.0 mi SE 4.6 mph - N/A Rain , Thunderstorm Light Thunderstorms and Rain
9:15 PM 73.4 °F - 73.4 °F 100% 30.03 in 10.0 mi SSE 3.5 mph - N/A Rain , Thunderstorm Light Thunderstorms and Rain
9:35 PM 71.6 °F - 71.6 °F 100% 30.04 in 7.0 mi SW 5.8 mph - N/A Thunderstorm Thunderstorm
9:55 PM 71.6 °F - 71.6 °F 100% 30.02 in 10.0 mi South 3.5 mph - N/A Rain , Thunderstorm Light Thunderstorms and Rain
10:15 PM 73.4 °F - 71.6 °F 94% 30.02 in 10.0 mi WSW 4.6 mph - N/A Rain , Thunderstorm Light Thunderstorms and Rain
10:35 PM 73.4 °F - 73.4 °F 100% 30.03 in 7.0 mi WNW 6.9 mph - N/A Thunderstorm Scattered Clouds
10:55 PM 73.4 °F - 71.6 °F 94% 30.05 in 10.0 mi West 19.6 mph 26.5 mph N/A Thunderstorm Unknown
11:15 PM 73.4 °F - 69.8 °F 88% 30.04 in 10.0 mi West 10.4 mph 21.9 mph N/A   Overcast
11:35 PM 71.6 °F - 69.8 °F 94% 30.03 in 10.0 mi Calm Calm - N/A Thunderstorm Thunderstorm
11:55 PM 71.6 °F - 69.8 °F 94% 30.02 in 10.0 mi Calm Calm - N/A Rain , Thunderstorm Light Thunderstorms and Rain